Time,TemperatureF,DewpointF,PressureIn,WindDirection,WindDirectionDegrees,WindSpeedMPH,WindSpeedGustMPH,Humidity,HourlyPrecipIn,Conditions,Clouds,dailyrainin,SoftwareType,DateUTC
2013-04-04 00:12:00,38.6,18.0,30.33,South,183,0.0,4.0,44,0.00,,,0.00,weatherlink.com 1.10,2013-04-04 05:12:00,
2013-04-04 00:27:00,38.4,19.0,30.32,South,184,4.0,4.0,45,0.00,,,0.00,weatherlink.com 1.10,2013-04-04 05:27:00,
2013-04-04 00:43:00,38.0,19.0,30.32,South,171,2.0,4.0,46,0.00,,,0.00,weatherlink.com 1.10,2013-04-04 05:43:00,
2013-04-04 00:57:00,37.2,19.0,30.32,SE,144,6.0,8.0,48,0.00,,,0.00,weatherlink.com 1.10,2013-04-04 05:57:00,
2013-04-04 01:12:00,33.7,19.0,30.31,SE,137,2.0,5.0,56,0.00,,,0.00,weatherlink.com 1.10,2013-04-04 06:12:00,
2013-04-04 01:27:00,32.2,20.0,30.31,ESE,119,2.0,5.0,61,0.00,,,0.00,weatherlink.com 1.10,2013-04-04 06:27:00,
2013-04-04 01:43:00,31.5,21.0,30.30,SE,144,2.0,3.0,64,0.00,,,0.00,weatherlink.com 1.10,2013-04-04 06:43:00,
2013-04-04 01:58:00,31.4,21.0,30.30,SSE,152,1.0,4.0,65,0.00,,,0.00,weatherlink.com 1.10,2013-04-04 06:58:00,
2013-04-04 02:13:00,32.4,21.0,30.29,South,187,3.0,5.0,63,0.00,,,0.00,weatherlink.com 1.10,2013-04-04 07:13:00,
2013-04-04 02:28:00,32.8,21.0,30.29,South,171,2.0,7.0,61,0.00,,,0.00,weatherlink.com 1.10,2013-04-04 07:28:00,
2013-04-04 02:43:00,32.6,21.0,30.28,South,189,1.0,6.0,62,0.00,,,0.00,weatherlink.com 1.10,2013-04-04 07:43:00,
2013-04-04 02:58:00,32.4,20.0,30.28,SSE,153,1.0,6.0,61,0.00,,,0.00,weatherlink.com 1.10,2013-04-04 07:58:00,
2013-04-04 03:13:00,32.3,20.0,30.28,South,176,3.0,5.0,62,0.00,,,0.00,weatherlink.com 1.10,2013-04-04 08:13:00,
2013-04-04 03:28:00,32.5,20.0,30.27,South,175,3.0,5.0,61,0.00,,,0.00,weatherlink.com 1.10,2013-04-04 08:28:00,
2013-04-04 03:43:00,32.3,20.0,30.27,South,185,2.0,5.0,62,0.00,,,0.00,weatherlink.com 1.10,2013-04-04 08:43:00,
2013-04-04 04:13:00,32.1,21.0,30.26,South,188,1.0,4.0,63,0.00,,,0.00,weatherlink.com 1.10,2013-04-04 09:13:00,
2013-04-04 04:29:00,32.0,21.0,30.26,South,170,3.0,5.0,63,0.00,,,0.00,weatherlink.com 1.10,2013-04-04 09:29:00,
2013-04-04 05:14:00,31.4,21.0,30.25,South,190,2.0,2.0,65,0.00,,,0.00,weatherlink.com 1.10,2013-04-04 10:14:00,
2013-04-04 05:29:00,31.5,21.0,30.25,SSW,193,0.0,3.0,65,0.00,,,0.00,weatherlink.com 1.10,2013-04-04 10:29:00,
2013-04-04 05:44:00,30.9,21.0,30.25,SSW,193,0.0,0.0,66,0.00,,,0.00,weatherlink.com 1.10,2013-04-04 10:44:00,
2013-04-04 05:59:00,30.4,21.0,30.25,SSW,193,0.0,2.0,68,0.00,,,0.00,weatherlink.com 1.10,2013-04-04 10:59:00,
2013-04-04 06:14:00,31.4,21.0,30.24,SSW,206,1.0,4.0,66,0.00,,,0.00,weatherlink.com 1.10,2013-04-04 11:14:00,
2013-04-04 06:29:00,32.8,21.0,30.24,SSW,209,1.0,3.0,63,0.00,,,0.00,weatherlink.com 1.10,2013-04-04 11:29:00,
2013-04-04 06:44:00,33.7,21.0,30.24,SSW,197,0.0,5.0,61,0.00,,,0.00,weatherlink.com 1.10,2013-04-04 11:44:00,
2013-04-04 06:59:00,34.0,21.0,30.25,SW,225,4.0,5.0,60,0.00,,,0.00,weatherlink.com 1.10,2013-04-04 11:59:00,
2013-04-04 07:14:00,34.8,22.0,30.24,SSW,213,3.0,5.0,59,0.00,,,0.00,weatherlink.com 1.10,2013-04-04 12:14:00,
2013-04-04 07:29:00,35.6,22.0,30.24,SSW,203,1.0,7.0,57,0.00,,,0.00,weatherlink.com 1.10,2013-04-04 12:29:00,
2013-04-04 07:44:00,36.5,22.0,30.24,SSW,213,2.0,6.0,56,0.00,,,0.00,weatherlink.com 1.10,2013-04-04 12:44:00,
2013-04-04 08:00:00,37.7,22.0,30.24,South,188,3.0,8.0,53,0.00,,,0.00,weatherlink.com 1.10,2013-04-04 13:00:00,
2013-04-04 08:15:00,38.7,22.0,30.24,SSW,200,3.0,7.0,52,0.00,,,0.00,weatherlink.com 1.10,2013-04-04 13:15:00,
2013-04-04 08:30:00,39.8,23.0,30.23,SSW,201,1.0,7.0,52,0.00,,,0.00,weatherlink.com 1.10,2013-04-04 13:30:00,
2013-04-04 08:45:00,41.1,23.0,30.23,SSW,209,6.0,10.0,49,0.00,,,0.00,weatherlink.com 1.10,2013-04-04 13:45:00,
2013-04-04 09:00:00,42.3,24.0,30.22,SW,226,0.0,7.0,49,0.00,,,0.00,weatherlink.com 1.10,2013-04-04 14:00:00,
2013-04-04 09:15:00,43.6,25.0,30.22,SW,225,3.0,7.0,48,0.00,,,0.00,weatherlink.com 1.10,2013-04-04 14:15:00,
2013-04-04 09:30:00,45.1,25.0,30.21,West,269,7.0,7.0,46,0.00,,,0.00,weatherlink.com 1.10,2013-04-04 14:30:00,
2013-04-04 09:45:00,46.4,24.0,30.21,West,260,8.0,8.0,42,0.00,,,0.00,weatherlink.com 1.10,2013-04-04 14:45:00,
2013-04-04 10:00:00,47.5,24.0,30.20,West,270,4.0,7.0,40,0.00,,,0.00,weatherlink.com 1.10,2013-04-04 15:00:00,
2013-04-04 10:15:00,48.7,25.0,30.19,West,274,4.0,8.0,39,0.00,,,0.00,weatherlink.com 1.10,2013-04-04 15:15:00,
2013-04-04 10:31:00,49.4,25.0,30.19,NNW,342,5.0,10.0,38,0.00,,,0.00,weatherlink.com 1.10,2013-04-04 15:31:00,
2013-04-04 10:45:00,50.3,25.0,30.19,NNE,25,4.0,9.0,37,0.00,,,0.00,weatherlink.com 1.10,2013-04-04 15:45:00,
2013-04-04 11:00:00,50.7,24.0,30.18,NNW,340,8.0,9.0,36,0.00,,,0.00,weatherlink.com 1.10,2013-04-04 16:00:00,
2013-04-04 11:15:00,51.7,25.0,30.18,NW,306,2.0,10.0,36,0.00,,,0.00,weatherlink.com 1.10,2013-04-04 16:15:00,
2013-04-04 11:31:00,52.2,26.0,30.17,WNW,284,7.0,8.0,37,0.00,,,0.00,weatherlink.com 1.10,2013-04-04 16:31:00,
2013-04-04 11:46:00,52.9,26.0,30.16,NW,309,6.0,9.0,35,0.00,,,0.00,weatherlink.com 1.10,2013-04-04 16:46:00,
2013-04-04 12:01:00,53.2,25.0,30.16,West,277,4.0,9.0,34,0.00,,,0.00,weatherlink.com 1.10,2013-04-04 17:01:00,
2013-04-04 12:16:00,53.9,24.0,30.15,SW,227,5.0,9.0,32,0.00,,,0.00,weatherlink.com 1.10,2013-04-04 17:16:00,
2013-04-04 12:46:00,55.1,24.0,30.14,WNW,292,6.0,8.0,30,0.00,,,0.00,weatherlink.com 1.10,2013-04-04 17:46:00,
2013-04-04 13:16:00,56.9,23.0,30.12,West,265,4.0,8.0,27,0.00,,,0.00,weatherlink.com 1.10,2013-04-04 18:16:00,
2013-04-04 13:46:00,57.7,24.0,30.11,West,277,4.0,8.0,27,0.00,,,0.00,weatherlink.com 1.10,2013-04-04 18:46:00,
2013-04-04 14:16:00,59.0,24.0,30.09,NW,308,3.0,7.0,26,0.00,,,0.00,weatherlink.com 1.10,2013-04-04 19:16:00,
2013-04-04 15:01:00,60.0,23.0,30.07,NW,318,3.0,8.0,24,0.00,,,0.00,weatherlink.com 1.10,2013-04-04 20:01:00,
2013-04-04 15:17:00,61.1,24.0,30.07,NW,321,5.0,7.0,24,0.00,,,0.00,weatherlink.com 1.10,2013-04-04 20:17:00,
2013-04-04 15:32:00,60.8,22.0,30.07,NW,313,4.0,10.0,22,0.00,,,0.00,weatherlink.com 1.10,2013-04-04 20:32:00,
2013-04-04 15:47:00,60.9,24.0,30.05,SW,226,5.0,8.0,24,0.00,,,0.00,weatherlink.com 1.10,2013-04-04 20:47:00,
2013-04-04 16:02:00,61.1,23.0,30.05,NNW,339,3.0,9.0,23,0.00,,,0.00,weatherlink.com 1.10,2013-04-04 21:02:00,
2013-04-04 16:17:00,61.5,25.0,30.05,North,11,4.0,9.0,25,0.00,,,0.00,weatherlink.com 1.10,2013-04-04 21:17:00,
2013-04-04 16:32:00,61.5,26.0,30.04,NW,320,2.0,6.0,26,0.00,,,0.00,weatherlink.com 1.10,2013-04-04 21:32:00,
2013-04-04 16:47:00,62.0,25.0,30.04,WNW,303,5.0,9.0,24,0.00,,,0.00,weatherlink.com 1.10,2013-04-04 21:47:00,
2013-04-04 17:02:00,61.6,26.0,30.04,NW,320,1.0,9.0,26,0.00,,,0.00,weatherlink.com 1.10,2013-04-04 22:02:00,
2013-04-04 17:17:00,61.6,26.0,30.04,NNW,345,6.0,9.0,26,0.00,,,0.00,weatherlink.com 1.10,2013-04-04 22:17:00,
2013-04-04 17:32:00,61.6,27.0,30.04,North,355,3.0,9.0,27,0.00,,,0.00,weatherlink.com 1.10,2013-04-04 22:32:00,
2013-04-04 17:47:00,61.1,27.0,30.04,WNW,299,2.0,9.0,27,0.00,,,0.00,weatherlink.com 1.10,2013-04-04 22:47:00,
2013-04-04 18:02:00,61.1,27.0,30.04,WNW,296,5.0,9.0,27,0.00,,,0.00,weatherlink.com 1.10,2013-04-04 23:02:00,
2013-04-04 18:17:00,60.5,27.0,30.04,NW,325,3.0,8.0,28,0.00,,,0.00,weatherlink.com 1.10,2013-04-04 23:17:00,
2013-04-04 18:32:00,59.7,28.0,30.04,NW,315,2.0,10.0,30,0.00,,,0.00,weatherlink.com 1.10,2013-04-04 23:32:00,
2013-04-04 18:48:00,58.8,29.0,30.03,WNW,298,3.0,6.0,32,0.00,,,0.00,weatherlink.com 1.10,2013-04-04 23:48:00,
2013-04-04 19:02:00,58.0,29.0,30.03,WNW,296,2.0,4.0,33,0.00,,,0.00,weatherlink.com 1.10,2013-04-05 00:02:00,
2013-04-04 19:17:00,56.7,29.0,30.02,WNW,291,0.0,3.0,35,0.00,,,0.00,weatherlink.com 1.10,2013-04-05 00:17:00,
2013-04-04 19:32:00,55.3,29.0,30.02,NW,320,0.0,3.0,36,0.00,,,0.00,weatherlink.com 1.10,2013-04-05 00:32:00,
2013-04-04 19:47:00,53.9,29.0,30.02,WNW,298,0.0,1.0,38,0.00,,,0.00,weatherlink.com 1.10,2013-04-05 00:47:00,
2013-04-04 20:02:00,53.0,28.0,30.03,WNW,298,0.0,1.0,39,0.00,,,0.00,weatherlink.com 1.10,2013-04-05 01:02:00,
2013-04-04 20:17:00,52.3,28.0,30.03,WNW,298,0.0,2.0,40,0.00,,,0.00,weatherlink.com 1.10,2013-04-05 01:17:00,
2013-04-04 20:32:00,51.6,28.0,30.03,WNW,297,0.0,1.0,41,0.00,,,0.00,weatherlink.com 1.10,2013-04-05 01:32:00,
2013-04-04 20:47:00,51.0,28.0,30.03,WNW,297,0.0,2.0,41,0.00,,,0.00,weatherlink.com 1.10,2013-04-05 01:47:00,
2013-04-04 21:17:00,49.9,28.0,30.04,WNW,286,1.0,2.0,43,0.00,,,0.00,weatherlink.com 1.10,2013-04-05 02:17:00,
2013-04-04 21:33:00,49.2,28.0,30.04,WNW,286,0.0,2.0,44,0.00,,,0.00,weatherlink.com 1.10,2013-04-05 02:33:00,
2013-04-04 21:48:00,48.3,28.0,30.05,WNW,286,0.0,1.0,46,0.00,,,0.00,weatherlink.com 1.10,2013-04-05 02:48:00,
2013-04-04 22:03:00,48.8,29.0,30.05,NNW,328,2.0,5.0,47,0.00,,,0.00,weatherlink.com 1.10,2013-04-05 03:03:00,
2013-04-04 22:18:00,48.7,30.0,30.05,NNW,332,1.0,5.0,49,0.00,,,0.00,weatherlink.com 1.10,2013-04-05 03:18:00,
2013-04-04 22:33:00,48.3,31.0,30.06,NNW,332,3.0,6.0,52,0.00,,,0.00,weatherlink.com 1.10,2013-04-05 03:33:00,
2013-04-04 22:48:00,47.3,33.0,30.06,NNW,338,4.0,5.0,58,0.00,,,0.00,weatherlink.com 1.10,2013-04-05 03:48:00,
2013-04-04 23:03:00,46.3,34.0,30.06,NNW,336,2.0,4.0,62,0.00,,,0.00,weatherlink.com 1.10,2013-04-05 04:03:00,
2013-04-04 23:18:00,45.9,35.0,30.06,NNW,333,1.0,4.0,65,0.00,,,0.00,weatherlink.com 1.10,2013-04-05 04:18:00,
2013-04-04 23:33:00,45.0,35.0,30.06,NNW,334,1.0,3.0,67,0.00,,,0.00,weatherlink.com 1.10,2013-04-05 04:33:00,
2013-04-04 23:48:00,43.6,34.0,30.06,North,360,0.0,3.0,70,0.00,,,0.00,weatherlink.com 1.10,2013-04-05 04:48:00,